Time,TemperatureF,DewpointF,PressureIn,WindDirection,WindDirectionDegrees,WindSpeedMPH,WindSpeedGustMPH,Humidity,HourlyPrecipIn,Conditions,Clouds,dailyrainin,SoftwareType,DateUTC
2013-05-17 00:01:00,54.0,49.9,30.19,South,180,0.0,0.0,86,0.00,,---,0.00,VWS V14.01,2013-05-17 07:01:00,
2013-05-17 00:06:00,54.0,49.9,30.19,South,180,0.0,0.0,86,0.00,,---,0.00,VWS V14.01,2013-05-17 07:06:00,
2013-05-17 00:11:00,54.0,49.9,30.19,South,180,0.0,0.0,86,0.00,,---,0.00,VWS V14.01,2013-05-17 07:11:00,
2013-05-17 00:16:00,54.0,50.2,30.19,South,180,0.0,0.0,87,0.00,,---,0.00,VWS V14.01,2013-05-17 07:16:00,
2013-05-17 00:21:00,53.8,50.0,30.19,South,180,0.0,0.0,87,0.00,,---,0.00,VWS V14.01,2013-05-17 07:21:00,
2013-05-17 00:26:00,53.6,49.8,30.19,South,180,0.0,0.0,87,0.00,,---,0.00,VWS V14.01,2013-05-17 07:26:00,
2013-05-17 00:31:00,53.8,50.0,30.19,South,180,0.0,0.0,87,0.00,,---,0.00,VWS V14.01,2013-05-17 07:31:00,
2013-05-17 00:36:00,53.6,49.8,30.19,South,180,0.0,0.0,87,0.00,,---,0.00,VWS V14.01,2013-05-17 07:36:00,
2013-05-17 00:41:00,53.6,49.8,30.19,South,180,0.0,0.0,87,0.00,,---,0.00,VWS V14.01,2013-05-17 07:41:00,
2013-05-17 00:46:00,53.6,49.8,30.19,South,180,0.0,0.0,87,0.00,,---,0.00,VWS V14.01,2013-05-17 07:46:00,
2013-05-17 00:51:00,53.6,49.8,30.19,South,180,0.0,0.0,87,0.00,,---,0.00,VWS V14.01,2013-05-17 07:51:00,
2013-05-17 00:56:00,53.6,49.8,30.19,South,180,0.0,0.0,87,0.00,,---,0.00,VWS V14.01,2013-05-17 07:56:00,
2013-05-17 01:01:00,53.6,49.8,30.19,South,180,0.0,0.0,87,0.00,,---,0.00,VWS V14.01,2013-05-17 08:01:00,
2013-05-17 01:06:00,53.6,49.8,30.19,South,180,0.0,0.0,87,0.00,,---,0.00,VWS V14.01,2013-05-17 08:06:00,
2013-05-17 01:11:00,53.6,49.8,30.19,South,180,0.0,0.0,87,0.00,,---,0.00,VWS V14.01,2013-05-17 08:11:00,
2013-05-17 01:16:00,53.6,49.8,30.19,South,180,0.0,0.0,87,0.00,,---,0.00,VWS V14.01,2013-05-17 08:16:00,
2013-05-17 01:21:00,53.6,49.8,30.19,South,180,0.0,0.0,87,0.00,,---,0.00,VWS V14.01,2013-05-17 08:21:00,
2013-05-17 01:26:00,53.6,49.8,30.19,South,180,0.0,0.0,87,0.00,,---,0.00,VWS V14.01,2013-05-17 08:26:00,
2013-05-17 01:31:00,53.5,49.7,30.19,South,180,0.0,0.0,87,0.00,,---,0.00,VWS V14.01,2013-05-17 08:31:00,
2013-05-17 01:36:00,53.5,49.7,30.19,South,180,0.0,0.0,87,0.00,,---,0.00,VWS V14.01,2013-05-17 08:36:00,
2013-05-17 01:41:00,53.5,49.7,30.18,South,180,0.0,0.0,87,0.00,,---,0.00,VWS V14.01,2013-05-17 08:41:00,
2013-05-17 01:46:00,53.5,49.7,30.18,South,180,0.0,0.0,87,0.00,,---,0.00,VWS V14.01,2013-05-17 08:46:00,
2013-05-17 01:51:00,53.3,49.5,30.18,South,180,0.0,0.0,87,0.00,,---,0.00,VWS V14.01,2013-05-17 08:51:00,
2013-05-17 01:56:00,53.3,49.5,30.18,South,180,0.0,0.0,87,0.00,,---,0.00,VWS V14.01,2013-05-17 08:56:00,
2013-05-17 02:01:00,53.3,49.5,30.19,South,180,0.0,0.0,87,0.00,,---,0.00,VWS V14.01,2013-05-17 09:01:00,
2013-05-17 02:06:00,53.1,49.3,30.19,South,180,0.0,0.0,87,0.00,,---,0.00,VWS V14.01,2013-05-17 09:06:00,
2013-05-17 02:11:00,53.1,49.3,30.19,South,180,0.0,0.0,87,0.00,,---,0.00,VWS V14.01,2013-05-17 09:11:00,
2013-05-17 02:16:00,53.1,49.3,30.19,South,180,0.0,0.0,87,0.00,,---,0.00,VWS V14.01,2013-05-17 09:16:00,
2013-05-17 02:21:00,52.9,49.5,30.19,South,180,0.0,0.0,88,0.00,,---,0.00,VWS V14.01,2013-05-17 09:21:00,
2013-05-17 02:26:00,52.9,49.5,30.19,South,180,0.0,0.0,88,0.00,,---,0.00,VWS V14.01,2013-05-17 09:26:00,
2013-05-17 02:31:00,52.9,49.5,30.19,South,180,0.0,0.0,88,0.00,,---,0.00,VWS V14.01,2013-05-17 09:31:00,
2013-05-17 02:36:00,52.9,49.5,30.19,South,180,0.0,0.0,88,0.00,,---,0.00,VWS V14.01,2013-05-17 09:36:00,
2013-05-17 02:41:00,52.9,49.5,30.19,South,180,0.0,0.0,88,0.00,,---,0.00,VWS V14.01,2013-05-17 09:41:00,
2013-05-17 02:46:00,52.9,49.5,30.19,South,180,0.0,0.0,88,0.00,,---,0.00,VWS V14.01,2013-05-17 09:46:00,
2013-05-17 02:51:00,52.9,49.5,30.19,South,180,0.0,0.0,88,0.00,,---,0.00,VWS V14.01,2013-05-17 09:51:00,
2013-05-17 02:56:00,52.9,49.5,30.19,South,180,0.0,0.0,88,0.00,,---,0.00,VWS V14.01,2013-05-17 09:56:00,
2013-05-17 03:01:00,52.9,49.5,30.19,South,180,0.0,0.0,88,0.00,,---,0.00,VWS V14.01,2013-05-17 10:01:00,
2013-05-17 03:06:00,52.9,49.5,30.19,South,180,0.0,0.0,88,0.00,,---,0.00,VWS V14.01,2013-05-17 10:06:00,
2013-05-17 03:11:00,52.9,49.5,30.19,South,180,0.0,0.0,88,0.00,,---,0.00,VWS V14.01,2013-05-17 10:11:00,
2013-05-17 03:16:00,52.9,49.5,30.19,South,180,0.0,0.0,88,0.00,,---,0.00,VWS V14.01,2013-05-17 10:16:00,
2013-05-17 03:21:00,52.9,49.5,30.19,South,180,0.0,0.0,88,0.00,,---,0.00,VWS V14.01,2013-05-17 10:21:00,
2013-05-17 03:26:00,52.7,49.2,30.19,South,180,0.0,0.0,88,0.00,,---,0.00,VWS V14.01,2013-05-17 10:26:00,
2013-05-17 03:31:00,52.7,49.2,30.19,South,180,0.0,0.0,88,0.00,,---,0.00,VWS V14.01,2013-05-17 10:31:00,
2013-05-17 03:36:00,52.7,49.2,30.19,South,180,0.0,0.0,88,0.00,,---,0.00,VWS V14.01,2013-05-17 10:36:00,
2013-05-17 03:41:00,52.7,49.2,30.19,South,180,0.0,0.0,88,0.00,,---,0.00,VWS V14.01,2013-05-17 10:41:00,
2013-05-17 03:46:00,52.7,49.2,30.19,South,180,0.0,0.0,88,0.00,,---,0.00,VWS V14.01,2013-05-17 10:46:00,
2013-05-17 03:51:00,52.7,49.2,30.19,South,180,0.0,0.0,88,0.00,,---,0.00,VWS V14.01,2013-05-17 10:51:00,
2013-05-17 03:56:00,52.6,49.2,30.19,South,180,0.0,0.0,88,0.00,,---,0.00,VWS V14.01,2013-05-17 10:56:00,
2013-05-17 04:01:00,52.6,49.2,30.19,South,180,0.0,0.0,88,0.00,,---,0.00,VWS V14.01,2013-05-17 11:01:00,
2013-05-17 04:06:00,52.6,49.2,30.19,South,180,0.0,0.0,88,0.00,,---,0.00,VWS V14.01,2013-05-17 11:06:00,
2013-05-17 04:11:00,52.6,49.2,30.19,South,180,0.0,0.0,88,0.00,,---,0.00,VWS V14.01,2013-05-17 11:11:00,
2013-05-17 04:16:00,52.6,49.2,30.19,South,180,0.0,0.0,88,0.00,,---,0.00,VWS V14.01,2013-05-17 11:16:00,
2013-05-17 04:21:00,52.6,49.2,30.19,South,180,0.0,0.0,88,0.00,,---,0.00,VWS V14.01,2013-05-17 11:21:00,
2013-05-17 04:25:00,52.6,49.5,30.19,South,180,0.0,0.0,89,0.00,,---,0.00,VWS V14.01,2013-05-17 11:25:00,
2013-05-17 04:30:00,52.6,49.5,30.19,South,180,0.0,0.0,89,0.00,,---,0.00,VWS V14.01,2013-05-17 11:30:00,
2013-05-17 04:35:00,52.6,49.5,30.19,South,180,0.0,0.0,89,0.00,,---,0.00,VWS V14.01,2013-05-17 11:35:00,
2013-05-17 04:40:00,52.6,49.5,30.19,South,180,0.0,0.0,89,0.00,,---,0.00,VWS V14.01,2013-05-17 11:40:00,
2013-05-17 04:45:00,52.6,49.5,30.19,South,180,0.0,0.0,89,0.00,,---,0.00,VWS V14.01,2013-05-17 11:45:00,
2013-05-17 04:50:00,52.6,49.5,30.19,South,180,0.0,0.0,89,0.00,,---,0.00,VWS V14.01,2013-05-17 11:50:00,
2013-05-17 04:55:00,52.4,49.3,30.19,South,180,0.0,0.0,89,0.00,,---,0.00,VWS V14.01,2013-05-17 11:55:00,
2013-05-17 05:00:00,52.4,49.3,30.19,South,180,0.0,0.0,89,0.00,,---,0.00,VWS V14.01,2013-05-17 12:00:00,
2013-05-17 05:05:00,52.4,49.3,30.19,South,180,0.0,0.0,89,0.00,,---,0.00,VWS V14.01,2013-05-17 12:05:00,
2013-05-17 05:10:00,52.6,49.5,30.19,South,180,0.0,0.0,89,0.00,,---,0.00,VWS V14.01,2013-05-17 12:10:00,
2013-05-17 05:15:00,52.6,49.5,30.19,South,180,0.0,0.0,89,0.00,,---,0.00,VWS V14.01,2013-05-17 12:15:00,
2013-05-17 05:20:00,52.6,49.5,30.19,South,180,0.0,0.0,89,0.00,,---,0.00,VWS V14.01,2013-05-17 12:20:00,
2013-05-17 05:25:00,52.6,49.5,30.19,South,180,0.0,0.0,89,0.00,,---,0.00,VWS V14.01,2013-05-17 12:25:00,
2013-05-17 05:30:00,52.4,49.0,30.19,South,180,0.0,0.0,88,0.00,,---,0.00,VWS V14.01,2013-05-17 12:30:00,
2013-05-17 05:35:00,52.4,49.3,30.19,South,180,0.0,0.0,89,0.00,,---,0.00,VWS V14.01,2013-05-17 12:35:00,
2013-05-17 05:40:00,52.4,49.3,30.19,South,180,0.0,0.0,89,0.00,,---,0.00,VWS V14.01,2013-05-17 12:40:00,
2013-05-17 05:45:00,52.4,49.3,30.19,South,180,0.0,0.0,89,0.00,,---,0.00,VWS V14.01,2013-05-17 12:45:00,
2013-05-17 05:50:00,52.4,49.3,30.19,South,180,0.0,0.0,89,0.00,,---,0.00,VWS V14.01,2013-05-17 12:50:00,
2013-05-17 05:55:00,52.2,49.1,30.20,South,180,0.0,0.0,89,0.00,,---,0.00,VWS V14.01,2013-05-17 12:55:00,
2013-05-17 06:00:00,52.2,49.1,30.20,South,180,0.0,0.0,89,0.00,,---,0.00,VWS V14.01,2013-05-17 13:00:00,
2013-05-17 06:05:00,52.2,49.1,30.20,South,180,0.0,0.0,89,0.00,,---,0.00,VWS V14.01,2013-05-17 13:05:00,
2013-05-17 06:10:00,52.2,49.1,30.20,South,180,0.0,0.0,89,0.00,,---,0.00,VWS V14.01,2013-05-17 13:10:00,
2013-05-17 06:15:00,52.2,49.1,30.20,South,180,0.0,0.0,89,0.00,,---,0.00,VWS V14.01,2013-05-17 13:15:00,
2013-05-17 06:20:00,52.2,49.1,30.20,South,180,0.0,0.0,89,0.00,,---,0.00,VWS V14.01,2013-05-17 13:20:00,
2013-05-17 06:25:00,52.2,49.1,30.20,South,180,0.0,0.0,89,0.00,,---,0.00,VWS V14.01,2013-05-17 13:25:00,
2013-05-17 06:30:00,52.2,49.1,30.20,South,180,0.0,0.0,89,0.00,,---,0.00,VWS V14.01,2013-05-17 13:30:00,
2013-05-17 06:35:00,52.2,49.1,30.20,South,180,0.0,0.0,89,0.00,,---,0.00,VWS V14.01,2013-05-17 13:35:00,
2013-05-17 06:40:00,52.2,49.1,30.20,South,180,0.0,0.0,89,0.00,,---,0.00,VWS V14.01,2013-05-17 13:40:00,
2013-05-17 06:45:00,52.0,48.9,30.20,South,180,0.0,0.0,89,0.00,,---,0.00,VWS V14.01,2013-05-17 13:45:00,
2013-05-17 06:50:00,52.2,49.1,30.20,South,180,0.0,0.0,89,0.00,,---,0.00,VWS V14.01,2013-05-17 13:50:00,
2013-05-17 06:55:00,52.0,48.9,30.20,South,180,0.0,0.0,89,0.00,,---,0.00,VWS V14.01,2013-05-17 13:55:00,
2013-05-17 07:00:00,51.8,48.7,30.20,South,180,0.0,0.0,89,0.00,,---,0.00,VWS V14.01,2013-05-17 14:00:00,
2013-05-17 07:05:00,51.5,48.4,30.21,South,180,0.0,0.0,89,0.00,,---,0.00,VWS V14.01,2013-05-17 14:05:00,
2013-05-17 07:10:00,51.3,48.2,30.21,South,180,0.0,0.0,89,0.00,,---,0.00,VWS V14.01,2013-05-17 14:10:00,
2013-05-17 07:15:00,51.3,48.2,30.21,South,180,0.0,0.0,89,0.00,,---,0.00,VWS V14.01,2013-05-17 14:15:00,
2013-05-17 07:20:00,51.1,48.0,30.21,South,180,0.0,0.0,89,0.00,,---,0.00,VWS V14.01,2013-05-17 14:20:00,
2013-05-17 07:25:00,51.3,48.2,30.21,South,180,0.0,0.0,89,0.00,,---,0.00,VWS V14.01,2013-05-17 14:25:00,
2013-05-17 07:30:00,51.1,48.0,30.21,South,180,0.0,0.0,89,0.00,,---,0.00,VWS V14.01,2013-05-17 14:30:00,
2013-05-17 07:35:00,51.3,48.2,30.21,South,180,0.0,0.0,89,0.00,,---,0.00,VWS V14.01,2013-05-17 14:35:00,
2013-05-17 07:40:00,51.5,48.4,30.21,South,180,0.0,0.0,89,0.00,,---,0.00,VWS V14.01,2013-05-17 14:40:00,
2013-05-17 07:45:00,51.7,48.6,30.21,South,180,0.0,0.0,89,0.00,,---,0.00,VWS V14.01,2013-05-17 14:45:00,
2013-05-17 07:50:00,51.8,48.7,30.21,South,180,0.2,0.2,89,0.00,,---,0.00,VWS V14.01,2013-05-17 14:50:00,
2013-05-17 07:55:00,51.8,48.7,30.21,South,180,1.1,1.1,89,0.00,,---,0.00,VWS V14.01,2013-05-17 14:55:00,
2013-05-17 08:00:00,52.2,49.4,30.21,South,180,0.7,0.7,90,0.00,,---,0.00,VWS V14.01,2013-05-17 15:00:00,
2013-05-17 08:05:00,52.6,49.8,30.21,South,180,0.9,0.9,90,0.00,,---,0.00,VWS V14.01,2013-05-17 15:05:00,
2013-05-17 08:10:00,52.9,49.8,30.21,South,180,1.1,1.1,89,0.00,,---,0.00,VWS V14.01,2013-05-17 15:10:00,
2013-05-17 08:15:00,52.9,49.8,30.21,South,180,0.0,0.0,89,0.00,,---,0.00,VWS V14.01,2013-05-17 15:15:00,
2013-05-17 08:20:00,52.9,49.8,30.21,South,180,0.2,1.1,89,0.00,,---,0.00,VWS V14.01,2013-05-17 15:20:00,
2013-05-17 08:25:00,53.1,50.0,30.21,South,180,1.6,1.6,89,0.00,,---,0.00,VWS V14.01,2013-05-17 15:25:00,
2013-05-17 08:30:00,52.9,49.5,30.20,South,180,0.0,0.0,88,0.00,,---,0.00,VWS V14.01,2013-05-17 15:30:00,
2013-05-17 08:35:00,52.9,49.5,30.21,South,180,0.0,0.9,88,0.00,,---,0.00,VWS V14.01,2013-05-17 15:35:00,
2013-05-17 08:40:00,53.1,50.0,30.21,South,180,0.0,0.0,89,0.00,,---,0.00,VWS V14.01,2013-05-17 15:40:00,
2013-05-17 08:45:00,53.3,49.8,30.21,SW,225,0.4,0.9,88,0.00,,---,0.00,VWS V14.01,2013-05-17 15:45:00,
2013-05-17 08:50:00,53.5,50.0,30.21,NW,315,0.0,0.0,88,0.00,,---,0.00,VWS V14.01,2013-05-17 15:50:00,
2013-05-17 08:55:00,53.5,50.0,30.21,WNW,292,0.4,0.4,88,0.00,,---,0.00,VWS V14.01,2013-05-17 15:55:00,
2013-05-17 09:00:00,53.3,49.5,30.20,NW,315,0.0,0.0,87,0.00,,---,0.00,VWS V14.01,2013-05-17 16:00:00,
2013-05-17 09:05:00,53.3,49.2,30.21,WNW,292,0.7,0.7,86,0.00,,---,0.00,VWS V14.01,2013-05-17 16:05:00,
2013-05-17 09:10:00,53.1,49.0,30.21,West,270,0.9,0.9,86,0.00,,---,0.00,VWS V14.01,2013-05-17 16:10:00,
2013-05-17 09:15:00,53.1,49.0,30.21,WNW,292,0.0,0.4,86,0.00,,---,0.00,VWS V14.01,2013-05-17 16:15:00,
2013-05-17 09:20:00,53.3,49.2,30.20,WSW,248,0.4,0.4,86,0.00,,---,0.00,VWS V14.01,2013-05-17 16:20:00,
2013-05-17 09:25:00,53.3,49.2,30.21,WNW,292,1.1,1.1,86,0.00,,---,0.00,VWS V14.01,2013-05-17 16:25:00,
2013-05-17 09:30:00,53.5,49.4,30.21,South,180,0.0,0.0,86,0.00,,---,0.00,VWS V14.01,2013-05-17 16:30:00,
2013-05-17 09:35:00,53.5,49.1,30.21,SW,225,0.9,0.9,85,0.00,,---,0.00,VWS V14.01,2013-05-17 16:35:00,
2013-05-17 09:40:00,53.5,48.8,30.21,South,180,0.9,0.9,84,0.00,,---,0.00,VWS V14.01,2013-05-17 16:40:00,
2013-05-17 09:45:00,53.3,48.0,30.21,South,180,0.0,0.4,82,0.00,,---,0.00,VWS V14.01,2013-05-17 16:45:00,
2013-05-17 09:50:00,53.5,48.2,30.21,South,180,2.7,2.7,82,0.00,,---,0.00,VWS V14.01,2013-05-17 16:50:00,
2013-05-17 09:55:00,53.5,48.2,30.21,South,180,0.2,0.2,82,0.00,,---,0.00,VWS V14.01,2013-05-17 16:55:00,
2013-05-17 10:00:00,53.6,48.6,30.22,South,180,0.7,0.7,83,0.00,,---,0.00,VWS V14.01,2013-05-17 17:00:00,
2013-05-17 10:05:00,53.8,48.8,30.22,South,180,0.9,0.9,83,0.00,,---,0.00,VWS V14.01,2013-05-17 17:05:00,
2013-05-17 10:10:00,53.8,48.4,30.22,South,180,0.7,0.7,82,0.00,,---,0.00,VWS V14.01,2013-05-17 17:10:00,
2013-05-17 10:15:00,54.0,48.6,30.22,South,180,2.5,2.5,82,0.00,,---,0.00,VWS V14.01,2013-05-17 17:15:00,
2013-05-17 10:20:00,54.2,48.8,30.22,South,180,1.1,2.9,82,0.00,,---,0.00,VWS V14.01,2013-05-17 17:20:00,
2013-05-17 10:25:00,54.4,49.0,30.22,South,180,0.0,0.0,82,0.00,,---,0.00,VWS V14.01,2013-05-17 17:25:00,
2013-05-17 10:30:00,54.4,49.0,30.22,South,180,1.6,1.6,82,0.00,,---,0.00,VWS V14.01,2013-05-17 17:30:00,
2013-05-17 10:35:00,54.5,49.1,30.22,South,180,0.0,0.2,82,0.00,,---,0.00,VWS V14.01,2013-05-17 17:35:00,
2013-05-17 10:40:00,54.7,49.3,30.22,South,180,0.2,0.2,82,0.00,,---,0.00,VWS V14.01,2013-05-17 17:40:00,
2013-05-17 10:45:00,54.9,49.5,30.22,South,180,0.0,0.0,82,0.00,,---,0.00,VWS V14.01,2013-05-17 17:45:00,
2013-05-17 10:50:00,54.9,49.5,30.22,South,180,0.0,0.0,82,0.00,,---,0.00,VWS V14.01,2013-05-17 17:50:00,
2013-05-17 10:55:00,55.3,49.9,30.22,South,180,2.2,2.2,82,0.00,,---,0.00,VWS V14.01,2013-05-17 17:55:00,
2013-05-17 11:00:00,55.6,50.2,30.22,South,180,2.5,2.5,82,0.00,,---,0.00,VWS V14.01,2013-05-17 18:00:00,
2013-05-17 11:05:00,55.6,49.9,30.22,South,180,1.1,1.1,81,0.00,,---,0.00,VWS V14.01,2013-05-17 18:05:00,
2013-05-17 11:10:00,56.0,50.3,30.22,South,180,2.2,2.2,81,0.00,,---,0.00,VWS V14.01,2013-05-17 18:10:00,
2013-05-17 11:15:00,56.2,50.5,30.22,South,180,2.5,2.5,81,0.00,,---,0.00,VWS V14.01,2013-05-17 18:15:00,
2013-05-17 11:20:00,56.5,50.4,30.22,South,180,1.1,1.1,80,0.00,,---,0.00,VWS V14.01,2013-05-17 18:20:00,
2013-05-17 11:25:00,56.7,50.6,30.22,South,180,0.4,0.4,80,0.00,,---,0.00,VWS V14.01,2013-05-17 18:25:00,
2013-05-17 11:30:00,56.5,50.4,30.22,South,180,0.4,0.4,80,0.00,,---,0.00,VWS V14.01,2013-05-17 18:30:00,
2013-05-17 11:35:00,56.5,50.1,30.22,South,180,1.3,1.3,79,0.00,,---,0.00,VWS V14.01,2013-05-17 18:35:00,
2013-05-17 11:40:00,56.3,49.9,30.22,South,180,0.0,0.0,79,0.00,,---,0.00,VWS V14.01,2013-05-17 18:40:00,
2013-05-17 11:45:00,56.3,49.9,30.23,South,180,0.2,1.1,79,0.00,,---,0.00,VWS V14.01,2013-05-17 18:45:00,
2013-05-17 11:50:00,56.3,49.9,30.22,South,180,0.9,0.9,79,0.00,,---,0.00,VWS V14.01,2013-05-17 18:50:00,
2013-05-17 11:55:00,56.5,50.1,30.22,South,180,0.0,0.0,79,0.00,,---,0.00,VWS V14.01,2013-05-17 18:55:00,
2013-05-17 12:00:00,56.5,49.7,30.22,South,180,0.9,0.9,78,0.00,,---,0.00,VWS V14.01,2013-05-17 19:00:00,
2013-05-17 12:05:00,56.9,50.5,30.22,South,180,0.2,0.2,79,0.00,,---,0.00,VWS V14.01,2013-05-17 19:05:00,
2013-05-17 12:10:00,57.1,50.3,30.22,South,180,2.2,2.2,78,0.00,,---,0.00,VWS V14.01,2013-05-17 19:10:00,
2013-05-17 12:15:00,57.4,50.6,30.22,South,180,0.0,0.0,78,0.00,,---,0.00,VWS V14.01,2013-05-17 19:15:00,
2013-05-17 12:20:00,57.8,50.7,30.22,South,180,1.6,1.6,77,0.00,,---,0.00,VWS V14.01,2013-05-17 19:20:00,
2013-05-17 12:25:00,58.0,50.1,30.22,South,180,0.0,0.0,75,0.00,,---,0.00,VWS V14.01,2013-05-17 19:25:00,
2013-05-17 12:30:00,58.0,50.1,30.22,South,180,2.2,2.2,75,0.00,,---,0.00,VWS V14.01,2013-05-17 19:30:00,
2013-05-17 12:35:00,58.0,50.1,30.22,South,180,1.8,1.8,75,0.00,,---,0.00,VWS V14.01,2013-05-17 19:35:00,
2013-05-17 12:40:00,58.1,49.9,30.22,South,180,0.9,1.8,74,0.00,,---,0.00,VWS V14.01,2013-05-17 19:40:00,
2013-05-17 12:45:00,58.3,50.4,30.22,South,180,2.5,2.5,75,0.00,,---,0.00,VWS V14.01,2013-05-17 19:45:00,
2013-05-17 12:50:00,58.3,49.7,30.22,South,180,0.9,2.5,73,0.00,,---,0.00,VWS V14.01,2013-05-17 19:50:00,
2013-05-17 12:55:00,58.3,49.7,30.22,South,180,0.0,0.0,73,0.00,,---,0.00,VWS V14.01,2013-05-17 19:55:00,
2013-05-17 13:00:00,58.5,49.5,30.22,South,180,0.4,0.4,72,0.00,,---,0.00,VWS V14.01,2013-05-17 20:00:00,
2013-05-17 13:05:00,58.5,49.5,30.22,South,180,0.4,0.4,72,0.00,,---,0.00,VWS V14.01,2013-05-17 20:05:00,
2013-05-17 13:10:00,58.7,50.1,30.22,South,180,0.4,0.4,73,0.00,,---,0.00,VWS V14.01,2013-05-17 20:10:00,
2013-05-17 13:15:00,58.7,50.1,30.22,South,180,0.0,0.0,73,0.00,,---,0.00,VWS V14.01,2013-05-17 20:15:00,
2013-05-17 13:20:00,58.7,49.7,30.22,South,180,0.9,0.9,72,0.00,,---,0.00,VWS V14.01,2013-05-17 20:20:00,
2013-05-17 13:25:00,58.9,49.5,30.22,South,180,1.3,1.3,71,0.00,,---,0.00,VWS V14.01,2013-05-17 20:25:00,
2013-05-17 13:29:00,59.0,49.6,30.22,South,180,1.1,1.1,71,0.00,,---,0.00,VWS V14.01,2013-05-17 20:29:00,
2013-05-17 13:34:00,59.2,49.8,30.22,South,180,1.1,1.8,71,0.00,,---,0.00,VWS V14.01,2013-05-17 20:34:00,
2013-05-17 13:39:00,59.4,50.0,30.22,South,180,1.1,1.1,71,0.00,,---,0.00,VWS V14.01,2013-05-17 20:39:00,
2013-05-17 13:44:00,59.8,50.4,30.22,South,180,0.7,0.7,71,0.00,,---,0.00,VWS V14.01,2013-05-17 20:44:00,
2013-05-17 13:49:00,59.9,49.7,30.22,South,180,0.9,0.9,69,0.00,,---,0.00,VWS V14.01,2013-05-17 20:49:00,
2013-05-17 13:54:00,60.1,49.9,30.22,South,180,1.8,2.5,69,0.00,,---,0.00,VWS V14.01,2013-05-17 20:54:00,
2013-05-17 13:59:00,60.3,50.1,30.22,East,90,1.6,1.6,69,0.00,,---,0.00,VWS V14.01,2013-05-17 20:59:00,
2013-05-17 14:04:00,60.5,50.3,30.21,NE,45,2.5,3.1,69,0.00,,---,0.00,VWS V14.01,2013-05-17 21:04:00,
2013-05-17 14:09:00,60.7,49.7,30.21,NNE,22,5.6,5.6,67,0.00,,---,0.00,VWS V14.01,2013-05-17 21:09:00,
2013-05-17 14:14:00,60.7,50.1,30.21,North,0,0.7,1.8,68,0.00,,---,0.00,VWS V14.01,2013-05-17 21:14:00,
2013-05-17 14:19:00,60.8,49.4,30.21,North,0,3.8,3.8,66,0.00,,---,0.00,VWS V14.01,2013-05-17 21:19:00,
2013-05-17 14:24:00,61.0,49.2,30.21,NNW,338,1.1,1.1,65,0.00,,---,0.00,VWS V14.01,2013-05-17 21:24:00,
2013-05-17 14:29:00,61.2,49.8,30.21,NNW,338,0.9,0.9,66,0.00,,---,0.00,VWS V14.01,2013-05-17 21:29:00,
2013-05-17 14:34:00,61.4,49.5,30.21,North,0,1.6,2.7,65,0.00,,---,0.00,VWS V14.01,2013-05-17 21:34:00,
2013-05-17 14:39:00,61.4,49.1,30.21,NNW,338,0.9,2.7,64,0.00,,---,0.00,VWS V14.01,2013-05-17 21:39:00,
2013-05-17 14:44:00,61.6,49.3,30.21,NE,45,3.1,3.1,64,0.00,,---,0.00,VWS V14.01,2013-05-17 21:44:00,
2013-05-17 14:49:00,61.6,49.3,30.21,ENE,68,1.6,1.8,64,0.00,,---,0.00,VWS V14.01,2013-05-17 21:49:00,
2013-05-17 14:54:00,61.7,49.8,30.21,NNW,338,0.0,0.9,65,0.00,,---,0.00,VWS V14.01,2013-05-17 21:54:00,
2013-05-17 14:59:00,61.9,50.4,30.21,North,0,0.9,1.1,66,0.00,,---,0.00,VWS V14.01,2013-05-17 21:59:00,
2013-05-17 15:04:00,61.7,49.8,30.21,South,180,1.8,1.8,65,0.00,,---,0.00,VWS V14.01,2013-05-17 22:04:00,
2013-05-17 15:09:00,61.4,49.5,30.21,South,180,0.4,0.4,65,0.00,,---,0.00,VWS V14.01,2013-05-17 22:09:00,
2013-05-17 15:14:00,61.2,49.8,30.21,South,180,0.0,0.0,66,0.00,,---,0.00,VWS V14.01,2013-05-17 22:14:00,
2013-05-17 15:19:00,60.8,49.4,30.22,South,180,0.0,0.0,66,0.00,,---,0.00,VWS V14.01,2013-05-17 22:19:00,
2013-05-17 15:24:00,60.8,49.8,30.22,South,180,0.0,0.0,67,0.00,,---,0.00,VWS V14.01,2013-05-17 22:24:00,
2013-05-17 15:29:00,60.5,49.9,30.22,South,180,0.0,0.0,68,0.00,,---,0.00,VWS V14.01,2013-05-17 22:29:00,
2013-05-17 15:34:00,60.3,50.1,30.22,South,180,0.0,0.0,69,0.00,,---,0.00,VWS V14.01,2013-05-17 22:34:00,
2013-05-17 15:39:00,60.1,49.9,30.22,South,180,0.4,0.4,69,0.00,,---,0.00,VWS V14.01,2013-05-17 22:39:00,
2013-05-17 15:44:00,59.6,49.8,30.22,South,180,0.0,0.0,70,0.00,,---,0.00,VWS V14.01,2013-05-17 22:44:00,
2013-05-17 15:49:00,59.0,49.6,30.22,South,180,0.0,0.0,71,0.00,,---,0.00,VWS V14.01,2013-05-17 22:49:00,
2013-05-17 15:54:00,58.7,50.1,30.22,South,180,0.0,0.0,73,0.00,,---,0.00,VWS V14.01,2013-05-17 22:54:00,
2013-05-17 15:59:00,58.0,49.8,30.22,South,180,0.7,0.7,74,0.00,,---,0.00,VWS V14.01,2013-05-17 22:59:00,
2013-05-17 16:04:00,57.6,49.8,30.22,South,180,0.0,0.0,75,0.00,,---,0.00,VWS V14.01,2013-05-17 23:04:00,
2013-05-17 16:09:00,57.2,49.7,30.22,South,180,0.0,0.0,76,0.00,,---,0.00,VWS V14.01,2013-05-17 23:09:00,
2013-05-17 16:14:00,57.2,50.1,30.22,South,180,0.7,0.7,77,0.00,,---,0.00,VWS V14.01,2013-05-17 23:14:00,
2013-05-17 16:19:00,57.4,50.6,30.22,South,180,0.4,0.4,78,0.00,,---,0.00,VWS V14.01,2013-05-17 23:19:00,
2013-05-17 16:24:00,57.6,50.8,30.22,South,180,0.4,0.4,78,0.00,,---,0.00,VWS V14.01,2013-05-17 23:24:00,
2013-05-17 16:29:00,57.6,51.1,30.22,South,180,0.4,0.4,79,0.00,,---,0.00,VWS V14.01,2013-05-17 23:29:00,
2013-05-17 16:34:00,57.6,51.1,30.22,South,180,0.0,0.0,79,0.00,,---,0.00,VWS V14.01,2013-05-17 23:34:00,
2013-05-17 16:39:00,57.6,51.1,30.22,South,180,0.0,0.0,79,0.00,,---,0.00,VWS V14.01,2013-05-17 23:39:00,
2013-05-17 16:44:00,57.6,51.5,30.22,South,180,0.0,0.0,80,0.00,,---,0.00,VWS V14.01,2013-05-17 23:44:00,
2013-05-17 16:49:00,58.0,51.9,30.22,South,180,0.0,0.0,80,0.00,,---,0.00,VWS V14.01,2013-05-17 23:49:00,
2013-05-17 16:54:00,58.1,52.0,30.22,South,180,0.7,0.7,80,0.00,,---,0.00,VWS V14.01,2013-05-17 23:54:00,
2013-05-17 16:59:00,58.1,52.0,30.22,South,180,0.0,0.0,80,0.00,,---,0.00,VWS V14.01,2013-05-17 23:59:00,
2013-05-17 17:04:00,58.0,51.9,30.22,South,180,1.3,1.3,80,0.00,,---,0.00,VWS V14.01,2013-05-18 00:04:00,
2013-05-17 17:09:00,58.0,52.2,30.22,South,180,0.0,0.0,81,0.00,,---,0.00,VWS V14.01,2013-05-18 00:09:00,
2013-05-17 17:14:00,58.1,52.3,30.23,South,180,0.4,1.6,81,0.00,,---,0.00,VWS V14.01,2013-05-18 00:14:00,
2013-05-17 17:19:00,58.1,52.3,30.23,South,180,1.1,1.1,81,0.00,,---,0.00,VWS V14.01,2013-05-18 00:19:00,
2013-05-17 17:24:00,58.1,52.3,30.23,South,180,0.0,0.0,81,0.00,,---,0.00,VWS V14.01,2013-05-18 00:24:00,
2013-05-17 17:29:00,58.3,52.5,30.23,South,180,0.7,0.7,81,0.00,,---,0.00,VWS V14.01,2013-05-18 00:29:00,
2013-05-17 17:34:00,58.0,52.2,30.24,South,180,3.4,3.4,81,0.00,,---,0.00,VWS V14.01,2013-05-18 00:34:00,
2013-05-17 17:39:00,58.0,51.9,30.24,South,180,0.7,1.1,80,0.00,,---,0.00,VWS V14.01,2013-05-18 00:39:00,
2013-05-17 17:44:00,57.6,51.1,30.24,South,180,0.0,0.0,79,0.00,,---,0.00,VWS V14.01,2013-05-18 00:44:00,
2013-05-17 17:49:00,57.4,51.0,30.24,South,180,0.2,0.2,79,0.00,,---,0.00,VWS V14.01,2013-05-18 00:49:00,
2013-05-17 17:54:00,57.2,50.8,30.24,South,180,0.0,0.0,79,0.00,,---,0.00,VWS V14.01,2013-05-18 00:54:00,
2013-05-17 17:59:00,57.2,51.1,30.24,South,180,0.9,0.9,80,0.00,,---,0.00,VWS V14.01,2013-05-18 00:59:00,
2013-05-17 18:04:00,57.1,51.0,30.24,South,180,0.0,0.0,80,0.00,,---,0.00,VWS V14.01,2013-05-18 01:04:00,
2013-05-17 18:09:00,56.5,50.8,30.24,South,180,1.1,1.1,81,0.00,,---,0.00,VWS V14.01,2013-05-18 01:09:00,
2013-05-17 18:14:00,56.3,50.5,30.24,South,180,0.9,0.9,81,0.00,,---,0.00,VWS V14.01,2013-05-18 01:14:00,
2013-05-17 18:19:00,56.2,50.5,30.25,South,180,0.0,0.0,81,0.00,,---,0.00,VWS V14.01,2013-05-18 01:19:00,
2013-05-17 18:24:00,56.2,50.5,30.24,South,180,0.4,0.4,81,0.00,,---,0.00,VWS V14.01,2013-05-18 01:24:00,
2013-05-17 18:29:00,56.0,50.3,30.24,South,180,1.3,1.3,81,0.00,,---,0.00,VWS V14.01,2013-05-18 01:29:00,
2013-05-17 18:34:00,56.0,50.6,30.24,NNE,22,2.5,2.5,82,0.00,,---,0.00,VWS V14.01,2013-05-18 01:34:00,
2013-05-17 18:39:00,55.8,50.4,30.25,North,0,0.7,0.7,82,0.00,,---,0.00,VWS V14.01,2013-05-18 01:39:00,
2013-05-17 18:44:00,55.6,50.2,30.24,North,0,1.1,1.1,82,0.00,,---,0.00,VWS V14.01,2013-05-18 01:44:00,
2013-05-17 18:49:00,55.4,50.0,30.24,NE,45,0.2,0.2,82,0.00,,---,0.00,VWS V14.01,2013-05-18 01:49:00,
2013-05-17 18:54:00,55.4,50.0,30.24,North,0,0.0,0.0,82,0.00,,---,0.00,VWS V14.01,2013-05-18 01:54:00,
2013-05-17 18:59:00,55.3,50.2,30.24,North,0,0.0,0.0,83,0.00,,---,0.00,VWS V14.01,2013-05-18 01:59:00,
2013-05-17 19:04:00,55.3,50.2,30.24,North,0,0.4,0.4,83,0.00,,---,0.00,VWS V14.01,2013-05-18 02:04:00,
2013-05-17 19:09:00,55.1,50.0,30.24,North,0,0.9,0.9,83,0.00,,---,0.00,VWS V14.01,2013-05-18 02:09:00,
2013-05-17 19:14:00,54.7,49.7,30.25,NNE,22,0.7,0.7,83,0.00,,---,0.00,VWS V14.01,2013-05-18 02:14:00,
2013-05-17 19:19:00,54.9,50.2,30.24,NNE,22,1.3,1.3,84,0.00,,---,0.00,VWS V14.01,2013-05-18 02:19:00,
2013-05-17 19:24:00,54.9,50.2,30.24,NNE,22,0.7,0.7,84,0.00,,---,0.00,VWS V14.01,2013-05-18 02:24:00,
2013-05-17 19:29:00,54.9,50.2,30.24,North,0,0.4,0.4,84,0.00,,---,0.00,VWS V14.01,2013-05-18 02:29:00,
2013-05-17 19:34:00,54.7,50.0,30.24,North,0,0.0,0.0,84,0.00,,---,0.00,VWS V14.01,2013-05-18 02:34:00,
2013-05-17 19:39:00,54.5,49.8,30.25,North,0,0.4,0.4,84,0.00,,---,0.00,VWS V14.01,2013-05-18 02:39:00,
2013-05-17 19:44:00,54.5,50.1,30.25,North,0,1.1,1.1,85,0.00,,---,0.00,VWS V14.01,2013-05-18 02:44:00,
2013-05-17 19:49:00,54.4,50.0,30.25,NNE,22,0.4,0.4,85,0.00,,---,0.00,VWS V14.01,2013-05-18 02:49:00,
2013-05-17 19:54:00,54.4,50.0,30.25,North,0,0.0,0.0,85,0.00,,---,0.00,VWS V14.01,2013-05-18 02:54:00,
2013-05-17 19:59:00,54.4,50.3,30.25,West,270,0.0,0.0,86,0.00,,---,0.00,VWS V14.01,2013-05-18 02:59:00,
2013-05-17 20:04:00,54.4,50.3,30.26,WSW,248,0.0,0.0,86,0.00,,---,0.00,VWS V14.01,2013-05-18 03:04:00,
2013-05-17 20:09:00,54.4,50.3,30.26,South,180,0.0,0.0,86,0.00,,---,0.00,VWS V14.01,2013-05-18 03:09:00,
2013-05-17 20:14:00,54.4,50.3,30.26,South,180,0.0,0.0,86,0.00,,---,0.00,VWS V14.01,2013-05-18 03:14:00,
2013-05-17 20:19:00,54.4,50.3,30.26,South,180,0.4,0.4,86,0.00,,---,0.00,VWS V14.01,2013-05-18 03:19:00,
2013-05-17 20:24:00,54.4,50.3,30.26,South,180,0.4,0.4,86,0.00,,---,0.00,VWS V14.01,2013-05-18 03:24:00,
2013-05-17 20:29:00,54.4,50.3,30.26,South,180,0.0,0.0,86,0.00,,---,0.00,VWS V14.01,2013-05-18 03:29:00,
2013-05-17 20:34:00,54.4,50.3,30.26,South,180,0.4,0.4,86,0.00,,---,0.00,VWS V14.01,2013-05-18 03:34:00,
2013-05-17 20:39:00,54.2,50.1,30.27,WNW,292,0.4,0.7,86,0.00,,---,0.00,VWS V14.01,2013-05-18 03:39:00,
2013-05-17 20:44:00,53.8,49.7,30.27,WNW,292,0.0,0.0,86,0.00,,---,0.00,VWS V14.01,2013-05-18 03:44:00,
2013-05-17 20:49:00,53.6,49.8,30.27,NNW,338,0.0,0.0,87,0.00,,---,0.00,VWS V14.01,2013-05-18 03:49:00,
2013-05-17 20:54:00,53.6,49.8,30.27,North,0,0.0,0.0,87,0.00,,---,0.00,VWS V14.01,2013-05-18 03:54:00,
2013-05-17 20:59:00,53.6,49.8,30.27,North,0,0.9,0.9,87,0.00,,---,0.00,VWS V14.01,2013-05-18 03:59:00,
2013-05-17 21:01:00,53.6,49.8,30.27,North,0,0.4,0.4,87,0.00,,---,0.00,VWS V14.01,2013-05-18 04:01:00,
2013-05-17 21:06:00,53.6,49.8,30.27,NNE,22,1.1,1.1,87,0.00,,---,0.00,VWS V14.01,2013-05-18 04:06:00,
2013-05-17 21:11:00,53.6,49.8,30.27,North,0,0.0,0.0,87,0.00,,---,0.00,VWS V14.01,2013-05-18 04:11:00,
2013-05-17 21:16:00,53.6,49.8,30.28,NW,315,0.0,0.0,87,0.00,,---,0.00,VWS V14.01,2013-05-18 04:16:00,
2013-05-17 21:21:00,53.6,49.8,30.28,WNW,292,0.0,0.0,87,0.00,,---,0.00,VWS V14.01,2013-05-18 04:21:00,
2013-05-17 21:26:00,53.6,49.8,30.28,North,0,0.0,0.0,87,0.00,,---,0.00,VWS V14.01,2013-05-18 04:26:00,
2013-05-17 21:31:00,53.6,49.8,30.28,North,0,0.0,0.0,87,0.00,,---,0.00,VWS V14.01,2013-05-18 04:31:00,
2013-05-17 21:36:00,53.6,50.1,30.28,North,0,0.0,0.0,88,0.00,,---,0.00,VWS V14.01,2013-05-18 04:36:00,
2013-05-17 21:41:00,53.6,50.1,30.28,North,0,0.0,0.0,88,0.00,,---,0.00,VWS V14.01,2013-05-18 04:41:00,
2013-05-17 21:46:00,53.6,49.8,30.28,North,0,0.0,0.0,87,0.00,,---,0.00,VWS V14.01,2013-05-18 04:46:00,
2013-05-17 21:51:00,53.6,50.1,30.29,North,0,0.0,0.0,88,0.00,,---,0.00,VWS V14.01,2013-05-18 04:51:00,
2013-05-17 21:56:00,53.5,50.0,30.29,North,0,0.0,0.0,88,0.00,,---,0.00,VWS V14.01,2013-05-18 04:56:00,
2013-05-17 22:01:00,53.3,49.8,30.29,North,0,0.0,0.0,88,0.00,,---,0.00,VWS V14.01,2013-05-18 05:01:00,
2013-05-17 22:06:00,53.3,49.8,30.29,ENE,68,0.0,0.0,88,0.00,,---,0.00,VWS V14.01,2013-05-18 05:06:00,
2013-05-17 22:11:00,53.3,49.8,30.29,NE,45,1.6,1.6,88,0.00,,---,0.00,VWS V14.01,2013-05-18 05:11:00,
2013-05-17 22:16:00,53.1,49.7,30.29,NE,45,0.0,0.0,88,0.00,,---,0.00,VWS V14.01,2013-05-18 05:16:00,
2013-05-17 22:21:00,53.1,49.7,30.29,NNE,22,0.0,0.0,88,0.00,,---,0.00,VWS V14.01,2013-05-18 05:21:00,
2013-05-17 22:26:00,52.9,49.5,30.29,North,0,0.7,0.7,88,0.00,,---,0.00,VWS V14.01,2013-05-18 05:26:00,
2013-05-17 22:31:00,52.9,49.5,30.29,North,0,0.0,0.0,88,0.00,,---,0.00,VWS V14.01,2013-05-18 05:31:00,
2013-05-17 22:36:00,52.9,49.5,30.29,North,0,0.0,0.0,88,0.00,,---,0.00,VWS V14.01,2013-05-18 05:36:00,
2013-05-17 22:41:00,52.7,49.2,30.29,North,0,0.4,0.4,88,0.00,,---,0.00,VWS V14.01,2013-05-18 05:41:00,
2013-05-17 22:46:00,52.7,49.2,30.29,North,0,0.0,0.0,88,0.00,,---,0.00,VWS V14.01,2013-05-18 05:46:00,
2013-05-17 22:51:00,52.6,49.2,30.29,North,0,0.2,0.2,88,0.00,,---,0.00,VWS V14.01,2013-05-18 05:51:00,
2013-05-17 22:56:00,52.6,49.2,30.30,North,0,0.0,0.0,88,0.00,,---,0.00,VWS V14.01,2013-05-18 05:56:00,
2013-05-17 23:01:00,52.2,48.8,30.29,NNW,338,0.0,0.0,88,0.00,,---,0.00,VWS V14.01,2013-05-18 06:01:00,
2013-05-17 23:06:00,52.2,48.8,30.30,NNW,338,0.0,0.0,88,0.00,,---,0.00,VWS V14.01,2013-05-18 06:06:00,
2013-05-17 23:11:00,52.2,48.8,30.30,NNW,338,0.0,0.0,88,0.00,,---,0.00,VWS V14.01,2013-05-18 06:11:00,
2013-05-17 23:16:00,51.8,48.7,30.29,North,0,0.4,0.4,89,0.00,,---,0.00,VWS V14.01,2013-05-18 06:16:00,
2013-05-17 23:21:00,51.8,48.7,30.30,NE,45,0.0,0.0,89,0.00,,---,0.00,VWS V14.01,2013-05-18 06:21:00,
2013-05-17 23:26:00,51.7,48.6,30.29,North,0,0.0,0.4,89,0.00,,---,0.00,VWS V14.01,2013-05-18 06:26:00,
2013-05-17 23:31:00,51.5,48.4,30.30,North,0,0.0,0.0,89,0.00,,---,0.00,VWS V14.01,2013-05-18 06:31:00,
2013-05-17 23:36:00,51.5,48.4,30.30,North,0,0.0,0.0,89,0.00,,---,0.00,VWS V14.01,2013-05-18 06:36:00,
2013-05-17 23:41:00,51.5,48.4,30.30,SSW,202,0.0,0.4,89,0.00,,---,0.00,VWS V14.01,2013-05-18 06:41:00,
2013-05-17 23:46:00,51.5,48.4,30.30,South,180,0.7,0.7,89,0.00,,---,0.00,VWS V14.01,2013-05-18 06:46:00,
2013-05-17 23:51:00,51.5,48.4,30.30,West,270,0.0,0.0,89,0.00,,---,0.00,VWS V14.01,2013-05-18 06:51:00,
2013-05-17 23:56:00,51.5,48.4,30.30,NE,45,0.4,0.7,89,0.00,,---,0.00,VWS V14.01,2013-05-18 06:56:00,